owner,sensor,date,latitude,longitude,vertical_datum,sea_water_practical_salinity,qcFlag 
ENP,ioos.station.NOAA.NDBC:GBIF1:1,2019-07-01T00:00:00Z,25.3780,-81.0290,1.5,11.58,11111222 
ENP,ioos.station.NOAA.NDBC:GBIF1:1,2019-07-01T01:00:00Z,25.3780,-81.0290,1.5,9.72,11111222 
ENP,ioos.station.NOAA.NDBC:GBIF1:1,2019-07-01T02:00:00Z,25.3780,-81.0290,1.5,9.15,11111222 
ENP,ioos.station.NOAA.NDBC:GBIF1:1,2019-07-01T03:00:00Z,25.3780,-81.0290,1.5,7.1,11111222 
ENP,ioos.station.NOAA.NDBC:GBIF1:1,2019-07-01T04:00:00Z,25.3780,-81.0290,1.5,6.25,11111222 
ENP,ioos.station.NOAA.NDBC:GBIF1:1,2019-07-01T05:00:00Z,25.3780,-81.0290,1.5,7.63,11111222 
ENP,ioos.station.NOAA.NDBC:GBIF1:1,2019-07-01T06:00:00Z,25.3780,-81.0290,1.5,11.06,11111222 
ENP,ioos.station.NOAA.NDBC:GBIF1:1,2019-07-01T07:00:00Z,25.3780,-81.0290,1.5,14.8,11111222 
ENP,ioos.station.NOAA.NDBC:GBIF1:1,2019-07-01T08:00:00Z,25.3780,-81.0290,1.5,18.22,11111222 
ENP,ioos.station.NOAA.NDBC:GBIF1:1,2019-07-01T09:00:00Z,25.3780,-81.0290,1.5,19.93,11111222 
ENP,ioos.station.NOAA.NDBC:GBIF1:1,2019-07-01T10:00:00Z,25.3780,-81.0290,1.5,19.38,11111222 
ENP,ioos.station.NOAA.NDBC:GBIF1:1,2019-07-01T11:00:00Z,25.3780,-81.0290,1.5,17.14,11111222 
ENP,ioos.station.NOAA.NDBC:GBIF1:1,2019-07-01T12:00:00Z,25.3780,-81.0290,1.5,14.46,11111222 
ENP,ioos.station.NOAA.NDBC:GBIF1:1,2019-07-01T13:00:00Z,25.3780,-81.0290,1.5,12.17,11111222 
ENP,ioos.station.NOAA.NDBC:GBIF1:1,2019-07-01T14:00:00Z,25.3780,-81.0290,1.5,10.9,11111222 
ENP,ioos.station.NOAA.NDBC:GBIF1:1,2019-07-01T15:00:00Z,25.3780,-81.0290,1.5,11.13,11111222 
ENP,ioos.station.NOAA.NDBC:GBIF1:1,2019-07-01T16:00:00Z,25.3780,-81.0290,1.5,12.88,11111222 
ENP,ioos.station.NOAA.NDBC:GBIF1:1,2019-07-01T17:00:00Z,25.3780,-81.0290,1.5,16.06,11111222 
ENP,ioos.station.NOAA.NDBC:GBIF1:1,2019-07-01T18:00:00Z,25.3780,-81.0290,1.5,19.11,11111222 
ENP,ioos.station.NOAA.NDBC:GBIF1:1,2019-07-01T19:00:00Z,25.3780,-81.0290,1.5,21.86,11111222 
ENP,ioos.station.NOAA.NDBC:GBIF1:1,2019-07-01T20:00:00Z,25.3780,-81.0290,1.5,23.39,11111222 
ENP,ioos.station.NOAA.NDBC:GBIF1:1,2019-07-01T21:00:00Z,25.3780,-81.0290,1.5,22.9,11111222 
ENP,ioos.station.NOAA.NDBC:GBIF1:1,2019-07-01T22:00:00Z,25.3780,-81.0290,1.5,19.72,11111222 
ENP,ioos.station.NOAA.NDBC:GBIF1:1,2019-07-01T23:00:00Z,25.3780,-81.0290,1.5,18.49,11111222 
ENP,ioos.station.NOAA.NDBC:GBIF1:1,2019-07-02T00:00:00Z,25.3780,-81.0290,1.5,15.46,11111222 
ENP,ioos.station.NOAA.NDBC:GBIF1:1,2019-07-02T01:00:00Z,25.3780,-81.0290,1.5,13.21,11111222 
ENP,ioos.station.NOAA.NDBC:GBIF1:1,2019-07-02T02:00:00Z,25.3780,-81.0290,1.5,11.45,11111222 
ENP,ioos.station.NOAA.NDBC:GBIF1:1,2019-07-02T03:00:00Z,25.3780,-81.0290,1.5,10.7,11111222 
ENP,ioos.station.NOAA.NDBC:GBIF1:1,2019-07-02T04:00:00Z,25.3780,-81.0290,1.5,8.89,11111222 
ENP,ioos.station.NOAA.NDBC:GBIF1:1,2019-07-02T05:00:00Z,25.3780,-81.0290,1.5,8.0,11111222 
ENP,ioos.station.NOAA.NDBC:GBIF1:1,2019-07-02T06:00:00Z,25.3780,-81.0290,1.5,9.72,11111222 
ENP,ioos.station.NOAA.NDBC:GBIF1:1,2019-07-02T07:00:00Z,25.3780,-81.0290,1.5,13.34,11111222 
ENP,ioos.station.NOAA.NDBC:GBIF1:1,2019-07-02T08:00:00Z,25.3780,-81.0290,1.5,16.94,11111222 
ENP,ioos.station.NOAA.NDBC:GBIF1:1,2019-07-02T09:00:00Z,25.3780,-81.0290,1.5,19.93,11111222 
ENP,ioos.station.NOAA.NDBC:GBIF1:1,2019-07-02T10:00:00Z,25.3780,-81.0290,1.5,21.16,11111222 
ENP,ioos.station.NOAA.NDBC:GBIF1:1,2019-07-02T11:00:00Z,25.3780,-81.0290,1.5,19.11,11111222 
ENP,ioos.station.NOAA.NDBC:GBIF1:1,2019-07-02T12:00:00Z,25.3780,-81.0290,1.5,16.2,11111222 
ENP,ioos.station.NOAA.NDBC:GBIF1:1,2019-07-02T13:00:00Z,25.3780,-81.0290,1.5,14.4,11111222 
ENP,ioos.station.NOAA.NDBC:GBIF1:1,2019-07-02T14:00:00Z,25.3780,-81.0290,1.5,11.78,11111222 
ENP,ioos.station.NOAA.NDBC:GBIF1:1,2019-07-02T15:00:00Z,25.3780,-81.0290,1.5,10.94,11111222 
ENP,ioos.station.NOAA.NDBC:GBIF1:1,2019-07-02T16:00:00Z,25.3780,-81.0290,1.5,11.06,11111222 
ENP,ioos.station.NOAA.NDBC:GBIF1:1,2019-07-02T17:00:00Z,25.3780,-81.0290,1.5,13.15,11111222 
ENP,ioos.station.NOAA.NDBC:GBIF1:1,2019-07-02T18:00:00Z,25.3780,-81.0290,1.5,17.14,11111222 
ENP,ioos.station.NOAA.NDBC:GBIF1:1,2019-07-02T19:00:00Z,25.3780,-81.0290,1.5,20.61,11111222 
ENP,ioos.station.NOAA.NDBC:GBIF1:1,2019-07-02T20:00:00Z,25.3780,-81.0290,1.5,23.32,11111222 
ENP,ioos.station.NOAA.NDBC:GBIF1:1,2019-07-02T21:00:00Z,25.3780,-81.0290,1.5,24.72,11111222 
ENP,ioos.station.NOAA.NDBC:GBIF1:1,2019-07-02T22:00:00Z,25.3780,-81.0290,1.5,24.37,11111222 
ENP,ioos.station.NOAA.NDBC:GBIF1:1,2019-07-02T23:00:00Z,25.3780,-81.0290,1.5,21.23,11111222 
ENP,ioos.station.NOAA.NDBC:GBIF1:1,2019-07-03T00:00:00Z,25.3780,-81.0290,1.5,19.93,11111222 
ENP,ioos.station.NOAA.NDBC:GBIF1:1,2019-07-03T01:00:00Z,25.3780,-81.0290,1.5,17.95,11111222 
ENP,ioos.station.NOAA.NDBC:GBIF1:1,2019-07-03T02:00:00Z,25.3780,-81.0290,1.5,15.73,11111222 
ENP,ioos.station.NOAA.NDBC:GBIF1:1,2019-07-03T03:00:00Z,25.3780,-81.0290,1.5,13.9,11111222 
ENP,ioos.station.NOAA.NDBC:GBIF1:1,2019-07-03T04:00:00Z,25.3780,-81.0290,1.5,13.08,11111222 
ENP,ioos.station.NOAA.NDBC:GBIF1:1,2019-07-03T05:00:00Z,25.3780,-81.0290,1.5,9.8,11111222 
ENP,ioos.station.NOAA.NDBC:GBIF1:1,2019-07-03T06:00:00Z,25.3780,-81.0290,1.5,9.97,11111222 
ENP,ioos.station.NOAA.NDBC:GBIF1:1,2019-07-03T07:00:00Z,25.3780,-81.0290,1.5,13.15,11111222 
ENP,ioos.station.NOAA.NDBC:GBIF1:1,2019-07-03T08:00:00Z,25.3780,-81.0290,1.5,17.07,11111222 
ENP,ioos.station.NOAA.NDBC:GBIF1:1,2019-07-03T09:00:00Z,25.3780,-81.0290,1.5,20.27,11111222 
ENP,ioos.station.NOAA.NDBC:GBIF1:1,2019-07-03T10:00:00Z,25.3780,-81.0290,1.5,22.69,11111222 
ENP,ioos.station.NOAA.NDBC:GBIF1:1,2019-07-03T11:00:00Z,25.3780,-81.0290,1.5,23.46,11111222 
ENP,ioos.station.NOAA.NDBC:GBIF1:1,2019-07-03T12:00:00Z,25.3780,-81.0290,1.5,20.96,11111222 
ENP,ioos.station.NOAA.NDBC:GBIF1:1,2019-07-03T13:00:00Z,25.3780,-81.0290,1.5,18.42,11111222 
ENP,ioos.station.NOAA.NDBC:GBIF1:1,2019-07-03T14:00:00Z,25.3780,-81.0290,1.5,16.8,11111222 
ENP,ioos.station.NOAA.NDBC:GBIF1:1,2019-07-03T15:00:00Z,25.3780,-81.0290,1.5,14.46,11111222 
ENP,ioos.station.NOAA.NDBC:GBIF1:1,2019-07-03T16:00:00Z,25.3780,-81.0290,1.5,13.67,11111222 
ENP,ioos.station.NOAA.NDBC:GBIF1:1,2019-07-03T17:00:00Z,25.3780,-81.0290,1.5,14.33,11111222 
ENP,ioos.station.NOAA.NDBC:GBIF1:1,2019-07-03T18:00:00Z,25.3780,-81.0290,1.5,17.41,11111222 
ENP,ioos.station.NOAA.NDBC:GBIF1:1,2019-07-03T19:00:00Z,25.3780,-81.0290,1.5,20.75,11111222 
ENP,ioos.station.NOAA.NDBC:GBIF1:1,2019-07-03T20:00:00Z,25.3780,-81.0290,1.5,23.67,11111222 
ENP,ioos.station.NOAA.NDBC:GBIF1:1,2019-07-03T21:00:00Z,25.3780,-81.0290,1.5,25.56,11111222 
ENP,ioos.station.NOAA.NDBC:GBIF1:1,2019-07-03T22:00:00Z,25.3780,-81.0290,1.5,26.27,11111222 
ENP,ioos.station.NOAA.NDBC:GBIF1:1,2019-07-03T23:00:00Z,25.3780,-81.0290,1.5,24.16,11111222 
ENP,ioos.station.NOAA.NDBC:GBIF1:1,2019-07-04T00:00:00Z,25.3780,-81.0290,1.5,22.48,11111222 
ENP,ioos.station.NOAA.NDBC:GBIF1:1,2019-07-04T01:00:00Z,25.3780,-81.0290,1.5,20.75,11111222 
ENP,ioos.station.NOAA.NDBC:GBIF1:1,2019-07-04T02:00:00Z,25.3780,-81.0290,1.5,19.72,11111222 
ENP,ioos.station.NOAA.NDBC:GBIF1:1,2019-07-04T03:00:00Z,25.3780,-81.0290,1.5,17.8,11111222 
ENP,ioos.station.NOAA.NDBC:GBIF1:1,2019-07-04T04:00:00Z,25.3780,-81.0290,1.5,16.33,11111222 
ENP,ioos.station.NOAA.NDBC:GBIF1:1,2019-07-04T05:00:00Z,25.3780,-81.0290,1.5,13.9,11111222 
ENP,ioos.station.NOAA.NDBC:GBIF1:1,2019-07-04T06:00:00Z,25.3780,-81.0290,1.5,11.06,11111222 
ENP,ioos.station.NOAA.NDBC:GBIF1:1,2019-07-04T07:00:00Z,25.3780,-81.0290,1.5,11.06,11111222 
ENP,ioos.station.NOAA.NDBC:GBIF1:1,2019-07-04T08:00:00Z,25.3780,-81.0290,1.5,13.61,11111222 
ENP,ioos.station.NOAA.NDBC:GBIF1:1,2019-07-04T09:00:00Z,25.3780,-81.0290,1.5,17.54,11111222 
ENP,ioos.station.NOAA.NDBC:GBIF1:1,2019-07-04T10:00:00Z,25.3780,-81.0290,1.5,20.61,11111222 
ENP,ioos.station.NOAA.NDBC:GBIF1:1,2019-07-04T11:00:00Z,25.3780,-81.0290,1.5,22.55,11111222 
ENP,ioos.station.NOAA.NDBC:GBIF1:1,2019-07-04T12:00:00Z,25.3780,-81.0290,1.5,21.93,11111222 
ENP,ioos.station.NOAA.NDBC:GBIF1:1,2019-07-04T13:00:00Z,25.3780,-81.0290,1.5,19.58,11111222 
ENP,ioos.station.NOAA.NDBC:GBIF1:1,2019-07-04T14:00:00Z,25.3780,-81.0290,1.5,17.27,11111222 
ENP,ioos.station.NOAA.NDBC:GBIF1:1,2019-07-04T15:00:00Z,25.3780,-81.0290,1.5,14.86,11111222 
ENP,ioos.station.NOAA.NDBC:GBIF1:1,2019-07-04T16:00:00Z,25.3780,-81.0290,1.5,13.02,11111222 
ENP,ioos.station.NOAA.NDBC:GBIF1:1,2019-07-04T17:00:00Z,25.3780,-81.0290,1.5,11.71,11111222 
ENP,ioos.station.NOAA.NDBC:GBIF1:1,2019-07-04T18:00:00Z,25.3780,-81.0290,1.5,12.95,11111222 
ENP,ioos.station.NOAA.NDBC:GBIF1:1,2019-07-04T19:00:00Z,25.3780,-81.0290,1.5,16.8,11111222 
ENP,ioos.station.NOAA.NDBC:GBIF1:1,2019-07-04T20:00:00Z,25.3780,-81.0290,1.5,21.03,11111222 
ENP,ioos.station.NOAA.NDBC:GBIF1:1,2019-07-04T21:00:00Z,25.3780,-81.0290,1.5,24.37,11111222 
ENP,ioos.station.NOAA.NDBC:GBIF1:1,2019-07-04T22:00:00Z,25.3780,-81.0290,1.5,25.99,11111222 
ENP,ioos.station.NOAA.NDBC:GBIF1:1,2019-07-04T23:00:00Z,25.3780,-81.0290,1.5,26.48,11111222 
ENP,ioos.station.NOAA.NDBC:GBIF1:1,2019-07-05T00:00:00Z,25.3780,-81.0290,1.5,24.44,11111222 
ENP,ioos.station.NOAA.NDBC:GBIF1:1,2019-07-05T01:00:00Z,25.3780,-81.0290,1.5,22.48,11111222 
ENP,ioos.station.NOAA.NDBC:GBIF1:1,2019-07-05T02:00:00Z,25.3780,-81.0290,1.5,21.1,11111222 
ENP,ioos.station.NOAA.NDBC:GBIF1:1,2019-07-05T03:00:00Z,25.3780,-81.0290,1.5,19.7,11111222 
ENP,ioos.station.NOAA.NDBC:GBIF1:1,2019-07-05T04:00:00Z,25.3780,-81.0290,1.5,18.29,11111222 
ENP,ioos.station.NOAA.NDBC:GBIF1:1,2019-07-05T05:00:00Z,25.3780,-81.0290,1.5,16.7,11111222 
ENP,ioos.station.NOAA.NDBC:GBIF1:1,2019-07-05T06:00:00Z,25.3780,-81.0290,1.5,13.94,11111222 
ENP,ioos.station.NOAA.NDBC:GBIF1:1,2019-07-05T07:00:00Z,25.3780,-81.0290,1.5,11.0,11111222 
ENP,ioos.station.NOAA.NDBC:GBIF1:1,2019-07-05T08:00:00Z,25.3780,-81.0290,1.5,11.45,11111222 
ENP,ioos.station.NOAA.NDBC:GBIF1:1,2019-07-05T09:00:00Z,25.3780,-81.0290,1.5,15.2,11111222 
ENP,ioos.station.NOAA.NDBC:GBIF1:1,2019-07-05T10:00:00Z,25.3780,-81.0290,1.5,19.04,11111222 
ENP,ioos.station.NOAA.NDBC:GBIF1:1,2019-07-05T11:00:00Z,25.3780,-81.0290,1.5,21.79,11111222 
ENP,ioos.station.NOAA.NDBC:GBIF1:1,2019-07-05T12:00:00Z,25.3780,-81.0290,1.5,23.32,11111222 
ENP,ioos.station.NOAA.NDBC:GBIF1:1,2019-07-05T13:00:00Z,25.3780,-81.0290,1.5,21.44,11111222 
ENP,ioos.station.NOAA.NDBC:GBIF1:1,2019-07-05T14:00:00Z,25.3780,-81.0290,1.5,19.52,11111222 
ENP,ioos.station.NOAA.NDBC:GBIF1:1,2019-07-05T15:00:00Z,25.3780,-81.0290,1.5,17.54,11111222 
ENP,ioos.station.NOAA.NDBC:GBIF1:1,2019-07-05T16:00:00Z,25.3780,-81.0290,1.5,15.26,11111222 
ENP,ioos.station.NOAA.NDBC:GBIF1:1,2019-07-05T17:00:00Z,25.3780,-81.0290,1.5,12.88,11111222 
ENP,ioos.station.NOAA.NDBC:GBIF1:1,2019-07-05T18:00:00Z,25.3780,-81.0290,1.5,11.58,11111222 
ENP,ioos.station.NOAA.NDBC:GBIF1:1,2019-07-05T19:00:00Z,25.3780,-81.0290,1.5,13.21,11111222 
ENP,ioos.station.NOAA.NDBC:GBIF1:1,2019-07-05T20:00:00Z,25.3780,-81.0290,1.5,17.34,11111222 
ENP,ioos.station.NOAA.NDBC:GBIF1:1,2019-07-05T21:00:00Z,25.3780,-81.0290,1.5,21.37,11111222 
ENP,ioos.station.NOAA.NDBC:GBIF1:1,2019-07-05T22:00:00Z,25.3780,-81.0290,1.5,24.23,11111222 
ENP,ioos.station.NOAA.NDBC:GBIF1:1,2019-07-05T23:00:00Z,25.3780,-81.0290,1.5,25.85,11111222 
ENP,ioos.station.NOAA.NDBC:GBIF1:1,2019-07-06T00:00:00Z,25.3780,-81.0290,1.5,25.42,11111222 
ENP,ioos.station.NOAA.NDBC:GBIF1:1,2019-07-06T01:00:00Z,25.3780,-81.0290,1.5,22.3,11111222 
ENP,ioos.station.NOAA.NDBC:GBIF1:1,2019-07-06T02:00:00Z,25.3780,-81.0290,1.5,20.13,11111222 
ENP,ioos.station.NOAA.NDBC:GBIF1:1,2019-07-06T03:00:00Z,25.3780,-81.0290,1.5,18.6,11111222 
ENP,ioos.station.NOAA.NDBC:GBIF1:1,2019-07-06T04:00:00Z,25.3780,-81.0290,1.5,16.67,11111222 
ENP,ioos.station.NOAA.NDBC:GBIF1:1,2019-07-06T05:00:00Z,25.3780,-81.0290,1.5,15.33,11111222 
ENP,ioos.station.NOAA.NDBC:GBIF1:1,2019-07-06T06:00:00Z,25.3780,-81.0290,1.5,14.07,11111222 
ENP,ioos.station.NOAA.NDBC:GBIF1:1,2019-07-06T07:00:00Z,25.3780,-81.0290,1.5,10.74,11111222 
ENP,ioos.station.NOAA.NDBC:GBIF1:1,2019-07-06T08:00:00Z,25.3780,-81.0290,1.5,8.83,11111222 
ENP,ioos.station.NOAA.NDBC:GBIF1:1,2019-07-06T09:00:00Z,25.3780,-81.0290,1.5,9.72,11111222 
ENP,ioos.station.NOAA.NDBC:GBIF1:1,2019-07-06T10:00:00Z,25.3780,-81.0290,1.5,13.28,11111222 
ENP,ioos.station.NOAA.NDBC:GBIF1:1,2019-07-06T11:00:00Z,25.3780,-81.0290,1.5,17.21,11111222 
ENP,ioos.station.NOAA.NDBC:GBIF1:1,2019-07-06T12:00:00Z,25.3780,-81.0290,1.5,20.34,11111222 
ENP,ioos.station.NOAA.NDBC:GBIF1:1,2019-07-06T13:00:00Z,25.3780,-81.0290,1.5,20.96,11111222 
ENP,ioos.station.NOAA.NDBC:GBIF1:1,2019-07-06T14:00:00Z,25.3780,-81.0290,1.5,17.81,11111222 
ENP,ioos.station.NOAA.NDBC:GBIF1:1,2019-07-06T15:00:00Z,25.3780,-81.0290,1.5,15.06,11111222 
ENP,ioos.station.NOAA.NDBC:GBIF1:1,2019-07-06T16:00:00Z,25.3780,-81.0290,1.5,12.75,11111222 
ENP,ioos.station.NOAA.NDBC:GBIF1:1,2019-07-06T17:00:00Z,25.3780,-81.0290,1.5,10.87,11111222 
ENP,ioos.station.NOAA.NDBC:GBIF1:1,2019-07-06T18:00:00Z,25.3780,-81.0290,1.5,7.62,11111222 
ENP,ioos.station.NOAA.NDBC:GBIF1:1,2019-07-06T19:00:00Z,25.3780,-81.0290,1.5,7.26,11111222 
ENP,ioos.station.NOAA.NDBC:GBIF1:1,2019-07-06T20:00:00Z,25.3780,-81.0290,1.5,8.83,11111222 
ENP,ioos.station.NOAA.NDBC:GBIF1:1,2019-07-06T21:00:00Z,25.3780,-81.0290,1.5,12.75,11111222 
ENP,ioos.station.NOAA.NDBC:GBIF1:1,2019-07-06T22:00:00Z,25.3780,-81.0290,1.5,17.48,11111222 
ENP,ioos.station.NOAA.NDBC:GBIF1:1,2019-07-06T23:00:00Z,25.3780,-81.0290,1.5,21.5,11111222 
ENP,ioos.station.NOAA.NDBC:GBIF1:1,2019-07-07T00:00:00Z,25.3780,-81.0290,1.5,23.32,11111222 
ENP,ioos.station.NOAA.NDBC:GBIF1:1,2019-07-07T01:00:00Z,25.3780,-81.0290,1.5,23.25,11111222 
ENP,ioos.station.NOAA.NDBC:GBIF1:1,2019-07-07T02:00:00Z,25.3780,-81.0290,1.5,18.7,11111222 
ENP,ioos.station.NOAA.NDBC:GBIF1:1,2019-07-07T03:00:00Z,25.3780,-81.0290,1.5,16.1,11111222 
ENP,ioos.station.NOAA.NDBC:GBIF1:1,2019-07-07T04:00:00Z,25.3780,-81.0290,1.5,14.0,11111222 
ENP,ioos.station.NOAA.NDBC:GBIF1:1,2019-07-07T05:00:00Z,25.3780,-81.0290,1.5,12.75,11111222 
ENP,ioos.station.NOAA.NDBC:GBIF1:1,2019-07-07T06:00:00Z,25.3780,-81.0290,1.5,9.72,11111222 
ENP,ioos.station.NOAA.NDBC:GBIF1:1,2019-07-07T07:00:00Z,25.3780,-81.0290,1.5,8.0,11111222 
ENP,ioos.station.NOAA.NDBC:GBIF1:1,2019-07-07T08:00:00Z,25.3780,-81.0290,1.5,6.19,11111222 
ENP,ioos.station.NOAA.NDBC:GBIF1:1,2019-07-07T09:00:00Z,25.3780,-81.0290,1.5,6.0,11111222 
ENP,ioos.station.NOAA.NDBC:GBIF1:1,2019-07-07T10:00:00Z,25.3780,-81.0290,1.5,6.98,11111222 
ENP,ioos.station.NOAA.NDBC:GBIF1:1,2019-07-07T11:00:00Z,25.3780,-81.0290,1.5,10.48,11111222 
ENP,ioos.station.NOAA.NDBC:GBIF1:1,2019-07-07T12:00:00Z,25.3780,-81.0290,1.5,15.2,11111222 
ENP,ioos.station.NOAA.NDBC:GBIF1:1,2019-07-07T13:00:00Z,25.3780,-81.0290,1.5,19.04,11111222 
ENP,ioos.station.NOAA.NDBC:GBIF1:1,2019-07-07T14:00:00Z,25.3780,-81.0290,1.5,19.11,11111222 
ENP,ioos.station.NOAA.NDBC:GBIF1:1,2019-07-07T15:00:00Z,25.3780,-81.0290,1.5,15.2,11111222 
ENP,ioos.station.NOAA.NDBC:GBIF1:1,2019-07-07T16:00:00Z,25.3780,-81.0290,1.5,12.43,11111222 
ENP,ioos.station.NOAA.NDBC:GBIF1:1,2019-07-07T17:00:00Z,25.3780,-81.0290,1.5,10.55,11111222 
ENP,ioos.station.NOAA.NDBC:GBIF1:1,2019-07-07T18:00:00Z,25.3780,-81.0290,1.5,8.89,11111222 
ENP,ioos.station.NOAA.NDBC:GBIF1:1,2019-07-07T19:00:00Z,25.3780,-81.0290,1.5,5.93,11111222 
ENP,ioos.station.NOAA.NDBC:GBIF1:1,2019-07-07T20:00:00Z,25.3780,-81.0290,1.5,5.77,11111222 
ENP,ioos.station.NOAA.NDBC:GBIF1:1,2019-07-07T21:00:00Z,25.3780,-81.0290,1.5,6.9,11111222 
ENP,ioos.station.NOAA.NDBC:GBIF1:1,2019-07-07T22:00:00Z,25.3780,-81.0290,1.5,10.68,11111222 
ENP,ioos.station.NOAA.NDBC:GBIF1:1,2019-07-07T23:00:00Z,25.3780,-81.0290,1.5,15.9,11111222 
ENP,ioos.station.NOAA.NDBC:GBIF1:1,2019-07-08T00:00:00Z,25.3780,-81.0290,1.5,20.27,11111222 
ENP,ioos.station.NOAA.NDBC:GBIF1:1,2019-07-08T01:00:00Z,25.3780,-81.0290,1.5,22.27,11111222 
ENP,ioos.station.NOAA.NDBC:GBIF1:1,2019-07-08T02:00:00Z,25.3780,-81.0290,1.5,22.06,11111222 
ENP,ioos.station.NOAA.NDBC:GBIF1:1,2019-07-08T03:00:00Z,25.3780,-81.0290,1.5,17.4,11111222 
ENP,ioos.station.NOAA.NDBC:GBIF1:1,2019-07-08T04:00:00Z,25.3780,-81.0290,1.5,14.53,11111222 
ENP,ioos.station.NOAA.NDBC:GBIF1:1,2019-07-08T05:00:00Z,25.3780,-81.0290,1.5,12.04,11111222 
ENP,ioos.station.NOAA.NDBC:GBIF1:1,2019-07-08T06:00:00Z,25.3780,-81.0290,1.5,10.68,11111222 
ENP,ioos.station.NOAA.NDBC:GBIF1:1,2019-07-08T07:00:00Z,25.3780,-81.0290,1.5,7.96,11111222 
ENP,ioos.station.NOAA.NDBC:GBIF1:1,2019-07-08T08:00:00Z,25.3780,-81.0290,1.5,5.96,11111222 
ENP,ioos.station.NOAA.NDBC:GBIF1:1,2019-07-08T09:00:00Z,25.3780,-81.0290,1.5,5.25,11111222 
ENP,ioos.station.NOAA.NDBC:GBIF1:1,2019-07-08T10:00:00Z,25.3780,-81.0290,1.5,5.3,11111222 
ENP,ioos.station.NOAA.NDBC:GBIF1:1,2019-07-08T11:00:00Z,25.3780,-81.0290,1.5,7.84,11111222 
ENP,ioos.station.NOAA.NDBC:GBIF1:1,2019-07-08T12:00:00Z,25.3780,-81.0290,1.5,12.04,11111222 
ENP,ioos.station.NOAA.NDBC:GBIF1:1,2019-07-08T13:00:00Z,25.3780,-81.0290,1.5,17.27,11111222 
ENP,ioos.station.NOAA.NDBC:GBIF1:1,2019-07-08T14:00:00Z,25.3780,-81.0290,1.5,19.93,11111222 
ENP,ioos.station.NOAA.NDBC:GBIF1:1,2019-07-08T15:00:00Z,25.3780,-81.0290,1.5,17.88,11111222 
ENP,ioos.station.NOAA.NDBC:GBIF1:1,2019-07-08T16:00:00Z,25.3780,-81.0290,1.5,14.6,11111222 
ENP,ioos.station.NOAA.NDBC:GBIF1:1,2019-07-08T17:00:00Z,25.3780,-81.0290,1.5,11.71,11111222 
ENP,ioos.station.NOAA.NDBC:GBIF1:1,2019-07-08T18:00:00Z,25.3780,-81.0290,1.5,9.65,11111222 
ENP,ioos.station.NOAA.NDBC:GBIF1:1,2019-07-08T19:00:00Z,25.3780,-81.0290,1.5,8.77,11111222 
ENP,ioos.station.NOAA.NDBC:GBIF1:1,2019-07-08T20:00:00Z,25.3780,-81.0290,1.5,6.79,11111222 
ENP,ioos.station.NOAA.NDBC:GBIF1:1,2019-07-08T21:00:00Z,25.3780,-81.0290,1.5,5.14,11111222 
ENP,ioos.station.NOAA.NDBC:GBIF1:1,2019-07-08T22:00:00Z,25.3780,-81.0290,1.5,5.18,11111222 
ENP,ioos.station.NOAA.NDBC:GBIF1:1,2019-07-08T23:00:00Z,25.3780,-81.0290,1.5,6.96,11111222 
ENP,ioos.station.NOAA.NDBC:GBIF1:1,2019-07-09T00:00:00Z,25.3780,-81.0290,1.5,10.55,11111222 
ENP,ioos.station.NOAA.NDBC:GBIF1:1,2019-07-09T01:00:00Z,25.3780,-81.0290,1.5,14.66,11111222 
ENP,ioos.station.NOAA.NDBC:GBIF1:1,2019-07-09T02:00:00Z,25.3780,-81.0290,1.5,17.75,11111222 
ENP,ioos.station.NOAA.NDBC:GBIF1:1,2019-07-09T03:00:00Z,25.3780,-81.0290,1.5,16.2,11111222 
ENP,ioos.station.NOAA.NDBC:GBIF1:1,2019-07-09T04:00:00Z,25.3780,-81.0290,1.5,13.08,11111222 
ENP,ioos.station.NOAA.NDBC:GBIF1:1,2019-07-09T05:00:00Z,25.3780,-81.0290,1.5,10.23,11111222 
ENP,ioos.station.NOAA.NDBC:GBIF1:1,2019-07-09T06:00:00Z,25.3780,-81.0290,1.5,8.19,11111222 
ENP,ioos.station.NOAA.NDBC:GBIF1:1,2019-07-09T07:00:00Z,25.3780,-81.0290,1.5,7.15,11111222 
ENP,ioos.station.NOAA.NDBC:GBIF1:1,2019-07-09T08:00:00Z,25.3780,-81.0290,1.5,6.16,11111222 
ENP,ioos.station.NOAA.NDBC:GBIF1:1,2019-07-09T09:00:00Z,25.3780,-81.0290,1.5,4.69,11111222 
ENP,ioos.station.NOAA.NDBC:GBIF1:1,2019-07-09T10:00:00Z,25.3780,-81.0290,1.5,4.53,11111222 
ENP,ioos.station.NOAA.NDBC:GBIF1:1,2019-07-09T11:00:00Z,25.3780,-81.0290,1.5,4.82,11111222 
ENP,ioos.station.NOAA.NDBC:GBIF1:1,2019-07-09T12:00:00Z,25.3780,-81.0290,1.5,7.54,11111222 
ENP,ioos.station.NOAA.NDBC:GBIF1:1,2019-07-09T13:00:00Z,25.3780,-81.0290,1.5,13.47,11111222 
ENP,ioos.station.NOAA.NDBC:GBIF1:1,2019-07-09T14:00:00Z,25.3780,-81.0290,1.5,17.88,11111222 
ENP,ioos.station.NOAA.NDBC:GBIF1:1,2019-07-09T15:00:00Z,25.3780,-81.0290,1.5,20.27,11111222 
ENP,ioos.station.NOAA.NDBC:GBIF1:1,2019-07-09T16:00:00Z,25.3780,-81.0290,1.5,20.13,11111222 
ENP,ioos.station.NOAA.NDBC:GBIF1:1,2019-07-09T17:00:00Z,25.3780,-81.0290,1.5,16.0,11111222 
ENP,ioos.station.NOAA.NDBC:GBIF1:1,2019-07-09T18:00:00Z,25.3780,-81.0290,1.5,12.43,11111222 
ENP,ioos.station.NOAA.NDBC:GBIF1:1,2019-07-09T19:00:00Z,25.3780,-81.0290,1.5,9.7,11111222 
ENP,ioos.station.NOAA.NDBC:GBIF1:1,2019-07-09T20:00:00Z,25.3780,-81.0290,1.5,8.64,11111222 
ENP,ioos.station.NOAA.NDBC:GBIF1:1,2019-07-09T21:00:00Z,25.3780,-81.0290,1.5,8.45,11111222 
ENP,ioos.station.NOAA.NDBC:GBIF1:1,2019-07-09T22:00:00Z,25.3780,-81.0290,1.5,6.61,11111222 
ENP,ioos.station.NOAA.NDBC:GBIF1:1,2019-07-09T23:00:00Z,25.3780,-81.0290,1.5,6.33,11111222 
ENP,ioos.station.NOAA.NDBC:GBIF1:1,2019-07-10T00:00:00Z,25.3780,-81.0290,1.5,8.12,11111222 
ENP,ioos.station.NOAA.NDBC:GBIF1:1,2019-07-10T01:00:00Z,25.3780,-81.0290,1.5,11.39,11111222 
ENP,ioos.station.NOAA.NDBC:GBIF1:1,2019-07-10T02:00:00Z,25.3780,-81.0290,1.5,14.86,11111222 
ENP,ioos.station.NOAA.NDBC:GBIF1:1,2019-07-10T03:00:00Z,25.3780,-81.0290,1.5,17.6,11111222 
ENP,ioos.station.NOAA.NDBC:GBIF1:1,2019-07-10T04:00:00Z,25.3780,-81.0290,1.5,16.6,11111222 
ENP,ioos.station.NOAA.NDBC:GBIF1:1,2019-07-10T05:00:00Z,25.3780,-81.0290,1.5,14.0,11111222 
ENP,ioos.station.NOAA.NDBC:GBIF1:1,2019-07-10T06:00:00Z,25.3780,-81.0290,1.5,11.39,11111222 
ENP,ioos.station.NOAA.NDBC:GBIF1:1,2019-07-10T07:00:00Z,25.3780,-81.0290,1.5,9.34,11111222 
ENP,ioos.station.NOAA.NDBC:GBIF1:1,2019-07-10T08:00:00Z,25.3780,-81.0290,1.5,8.05,11111222 
ENP,ioos.station.NOAA.NDBC:GBIF1:1,2019-07-10T09:00:00Z,25.3780,-81.0290,1.5,6.42,11111222 
ENP,ioos.station.NOAA.NDBC:GBIF1:1,2019-07-10T10:00:00Z,25.3780,-81.0290,1.5,4.82,11111222 
ENP,ioos.station.NOAA.NDBC:GBIF1:1,2019-07-10T11:00:00Z,25.3780,-81.0290,1.5,4.48,11111222 
ENP,ioos.station.NOAA.NDBC:GBIF1:1,2019-07-10T12:00:00Z,25.3780,-81.0290,1.5,4.63,11111222 
ENP,ioos.station.NOAA.NDBC:GBIF1:1,2019-07-10T13:00:00Z,25.3780,-81.0290,1.5,6.79,11111222 
ENP,ioos.station.NOAA.NDBC:GBIF1:1,2019-07-10T14:00:00Z,25.3780,-81.0290,1.5,11.06,11111222 
ENP,ioos.station.NOAA.NDBC:GBIF1:1,2019-07-10T15:00:00Z,25.3780,-81.0290,1.5,16.0,11111222 
ENP,ioos.station.NOAA.NDBC:GBIF1:1,2019-07-10T16:00:00Z,25.3780,-81.0290,1.5,18.29,11111222 
ENP,ioos.station.NOAA.NDBC:GBIF1:1,2019-07-10T17:00:00Z,25.3780,-81.0290,1.5,16.87,11111222 
ENP,ioos.station.NOAA.NDBC:GBIF1:1,2019-07-10T18:00:00Z,25.3780,-81.0290,1.5,12.62,11111222 
ENP,ioos.station.NOAA.NDBC:GBIF1:1,2019-07-10T19:00:00Z,25.3780,-81.0290,1.5,9.97,11111222 
ENP,ioos.station.NOAA.NDBC:GBIF1:1,2019-07-10T20:00:00Z,25.3780,-81.0290,1.5,8.04,11111222 
ENP,ioos.station.NOAA.NDBC:GBIF1:1,2019-07-10T21:00:00Z,25.3780,-81.0290,1.5,7.33,11111222 
ENP,ioos.station.NOAA.NDBC:GBIF1:1,2019-07-10T22:00:00Z,25.3780,-81.0290,1.5,5.2,11111222 
ENP,ioos.station.NOAA.NDBC:GBIF1:1,2019-07-10T23:00:00Z,25.3780,-81.0290,1.5,4.55,11111222 
ENP,ioos.station.NOAA.NDBC:GBIF1:1,2019-07-11T00:00:00Z,25.3780,-81.0290,1.5,4.23,11111222 
ENP,ioos.station.NOAA.NDBC:GBIF1:1,2019-07-11T01:00:00Z,25.3780,-81.0290,1.5,4.17,11111222 
ENP,ioos.station.NOAA.NDBC:GBIF1:1,2019-07-11T02:00:00Z,25.3780,-81.0290,1.5,4.91,11111222 
ENP,ioos.station.NOAA.NDBC:GBIF1:1,2019-07-11T03:00:00Z,25.3780,-81.0290,1.5,7.1,11111222 
ENP,ioos.station.NOAA.NDBC:GBIF1:1,2019-07-11T04:00:00Z,25.3780,-81.0290,1.5,10.55,11111222 
ENP,ioos.station.NOAA.NDBC:GBIF1:1,2019-07-11T05:00:00Z,25.3780,-81.0290,1.5,12.56,11111222 
ENP,ioos.station.NOAA.NDBC:GBIF1:1,2019-07-11T06:00:00Z,25.3780,-81.0290,1.5,9.53,11111222 
ENP,ioos.station.NOAA.NDBC:GBIF1:1,2019-07-11T07:00:00Z,25.3780,-81.0290,1.5,7.57,11111222 
ENP,ioos.station.NOAA.NDBC:GBIF1:1,2019-07-11T08:00:00Z,25.3780,-81.0290,1.5,6.48,11111222 
ENP,ioos.station.NOAA.NDBC:GBIF1:1,2019-07-11T09:00:00Z,25.3780,-81.0290,1.5,5.6,11111222 
ENP,ioos.station.NOAA.NDBC:GBIF1:1,2019-07-11T10:00:00Z,25.3780,-81.0290,1.5,4.23,11111222 
ENP,ioos.station.NOAA.NDBC:GBIF1:1,2019-07-11T11:00:00Z,25.3780,-81.0290,1.5,3.82,11111222 
ENP,ioos.station.NOAA.NDBC:GBIF1:1,2019-07-11T12:00:00Z,25.3780,-81.0290,1.5,3.78,11111222 
ENP,ioos.station.NOAA.NDBC:GBIF1:1,2019-07-11T13:00:00Z,25.3780,-81.0290,1.5,4.0,11111222 
ENP,ioos.station.NOAA.NDBC:GBIF1:1,2019-07-11T14:00:00Z,25.3780,-81.0290,1.5,6.43,11111222 
ENP,ioos.station.NOAA.NDBC:GBIF1:1,2019-07-11T15:00:00Z,25.3780,-81.0290,1.5,12.43,11111222 
ENP,ioos.station.NOAA.NDBC:GBIF1:1,2019-07-11T16:00:00Z,25.3780,-81.0290,1.5,16.67,11111222 
ENP,ioos.station.NOAA.NDBC:GBIF1:1,2019-07-11T17:00:00Z,25.3780,-81.0290,1.5,18.7,11111222 